カタログに戻る

STARLINK-38252

運用中通信SSO
NORAD 100254·PAYLOAD·🇺🇸 United States

打ち上げ Aug 8, 2026 から Vandenberg Space Force Base

Loading…

次のパス (今後24時間)

TLE

最新Source: Space-Track

元期: Sep 14, 2026, 20:55 UTC

1 A0254U 26181J   26257.87191307  .00292752  00000-0  18906-2 0  9990
2 A0254  97.2833 301.1779 0002211  82.3390 277.8126 15.75268601  7072

AllMySatでSTARLINK-38252をリアルタイム追跡

Download on the App Store